カタログに戻る

DELTA 1 DEB

LostSSO
NORAD 20309·DEBRIS·🇺🇸 United States

打ち上げ Jul 29, 1976 から Vandenberg Space Force Base

Loading…

次のパス (今後24時間)

TLE

古いSource: Space-Track

元期: Dec 18, 2024, 03:16 UTC

1 20309U 76077FQ  24353.13611437  .00000702  00000-0  78160-2 0  9997
2 20309 102.5750  59.1520 0196966 293.8025  96.2460 12.08896087515539

AllMySatでDELTA 1 DEBをリアルタイム追跡

Download on the App Store